Time,TemperatureF,DewpointF,PressureIn,WindDirection,WindDirectionDegrees,WindSpeedMPH,WindSpeedGustMPH,Humidity,HourlyPrecipIn,Conditions,Clouds,dailyrainin,SoftwareType,DateUTC
2013-03-18 00:04:00,21.0,16.0,30.06,ESE,111,10.0,12.0,80,0.00,,,0.00,weatherlink.com 1.10,2013-03-18 05:04:00,
2013-03-18 00:19:00,20.7,16.0,30.05,East,99,6.0,9.0,81,0.00,,,0.00,weatherlink.com 1.10,2013-03-18 05:19:00,
2013-03-18 00:34:00,20.3,15.0,30.05,East,92,5.0,8.0,81,0.00,,,0.00,weatherlink.com 1.10,2013-03-18 05:34:00,
2013-03-18 00:49:00,20.1,15.0,30.04,East,84,7.0,9.0,82,0.00,,,0.00,weatherlink.com 1.10,2013-03-18 05:49:00,
2013-03-18 01:04:00,19.8,15.0,30.04,East,83,3.0,5.0,81,0.00,,,0.00,weatherlink.com 1.10,2013-03-18 06:04:00,
2013-03-18 01:19:00,19.3,15.0,30.04,East,80,6.0,7.0,82,0.00,,,0.00,weatherlink.com 1.10,2013-03-18 06:19:00,
2013-03-18 01:34:00,19.3,15.0,30.03,East,88,6.0,9.0,83,0.00,,,0.00,weatherlink.com 1.10,2013-03-18 06:34:00,
2013-03-18 01:49:00,19.8,16.0,30.03,ENE,63,4.0,8.0,84,0.00,,,0.00,weatherlink.com 1.10,2013-03-18 06:49:00,
2013-03-18 02:05:00,19.6,16.0,30.01,ENE,59,7.0,11.0,84,0.00,,,0.00,weatherlink.com 1.10,2013-03-18 07:05:00,
2013-03-18 02:20:00,19.2,15.0,30.01,East,87,3.0,9.0,84,0.00,,,0.00,weatherlink.com 1.10,2013-03-18 07:20:00,
2013-03-18 02:35:00,19.4,15.0,30.00,ESE,103,7.0,9.0,84,0.00,,,0.00,weatherlink.com 1.10,2013-03-18 07:35:00,
2013-03-18 02:50:00,19.5,16.0,29.99,ENE,74,5.0,8.0,86,0.00,,,0.00,weatherlink.com 1.10,2013-03-18 07:50:00,
2013-03-18 03:05:00,19.2,15.0,29.98,East,98,5.0,8.0,85,0.00,,,0.00,weatherlink.com 1.10,2013-03-18 08:05:00,
2013-03-18 03:20:00,19.1,16.0,29.97,East,84,6.0,9.0,86,0.00,,,0.00,weatherlink.com 1.10,2013-03-18 08:20:00,
2013-03-18 03:35:00,19.1,16.0,29.95,East,80,3.0,11.0,87,0.00,,,0.00,weatherlink.com 1.10,2013-03-18 08:35:00,
2013-03-18 03:50:00,19.4,16.0,29.95,East,97,3.0,8.0,88,0.00,,,0.00,weatherlink.com 1.10,2013-03-18 08:50:00,
2013-03-18 04:05:00,19.5,17.0,29.94,East,88,3.0,8.0,88,0.00,,,0.00,weatherlink.com 1.10,2013-03-18 09:05:00,
2013-03-18 04:20:00,19.5,17.0,29.93,ESE,102,5.0,10.0,88,0.00,,,0.00,weatherlink.com 1.10,2013-03-18 09:20:00,
2013-03-18 04:35:00,19.4,16.0,29.92,ENE,69,7.0,9.0,88,0.00,,,0.00,weatherlink.com 1.10,2013-03-18 09:35:00,
2013-03-18 04:50:00,19.3,16.0,29.92,East,92,5.0,9.0,88,0.00,,,0.00,weatherlink.com 1.10,2013-03-18 09:50:00,
2013-03-18 05:05:00,19.6,17.0,29.91,East,86,7.0,10.0,89,0.00,,,0.00,weatherlink.com 1.10,2013-03-18 10:05:00,
2013-03-18 05:20:00,19.8,17.0,29.89,East,90,8.0,11.0,89,0.00,,,0.00,weatherlink.com 1.10,2013-03-18 10:20:00,
2013-03-18 05:35:00,21.0,19.0,29.89,ENE,78,5.0,12.0,90,0.00,,,0.00,weatherlink.com 1.10,2013-03-18 10:35:00,
2013-03-18 05:50:00,21.8,19.0,29.88,ESE,105,3.0,11.0,90,0.00,,,0.00,weatherlink.com 1.10,2013-03-18 10:50:00,
2013-03-18 06:05:00,22.3,20.0,29.88,East,95,6.0,10.0,90,0.00,,,0.00,weatherlink.com 1.10,2013-03-18 11:05:00,
2013-03-18 06:20:00,22.9,20.0,29.88,East,98,5.0,10.0,90,0.00,,,0.00,weatherlink.com 1.10,2013-03-18 11:20:00,
2013-03-18 06:35:00,23.2,21.0,29.87,East,84,7.0,13.0,89,0.00,,,0.00,weatherlink.com 1.10,2013-03-18 11:35:00,
2013-03-18 06:50:00,23.3,21.0,29.85,East,90,9.0,12.0,89,0.00,,,0.00,weatherlink.com 1.10,2013-03-18 11:50:00,
2013-03-18 07:05:00,23.7,21.0,29.84,ESE,123,5.0,15.0,90,0.00,,,0.00,weatherlink.com 1.10,2013-03-18 12:05:00,
2013-03-18 07:20:00,24.2,22.0,29.83,SE,139,8.0,12.0,90,0.00,,,0.00,weatherlink.com 1.10,2013-03-18 12:20:00,
2013-03-18 07:35:00,24.6,22.0,29.83,ESE,114,8.0,13.0,89,0.00,,,0.00,weatherlink.com 1.10,2013-03-18 12:35:00,
2013-03-18 07:50:00,25.4,22.0,29.81,ESE,103,8.0,16.0,88,0.00,,,0.00,weatherlink.com 1.10,2013-03-18 12:50:00,
2013-03-18 08:05:00,26.0,23.0,29.81,SE,144,2.0,14.0,88,0.00,,,0.00,weatherlink.com 1.10,2013-03-18 13:05:00,
2013-03-18 08:21:00,26.3,23.0,29.80,SE,144,6.0,16.0,86,0.00,,,0.00,weatherlink.com 1.10,2013-03-18 13:21:00,
2013-03-18 08:36:00,26.7,23.0,29.79,SE,135,5.0,15.0,86,0.00,,,0.00,weatherlink.com 1.10,2013-03-18 13:36:00,
2013-03-18 08:51:00,27.0,23.0,29.79,ESE,109,8.0,14.0,86,0.00,,,0.00,weatherlink.com 1.10,2013-03-18 13:51:00,
2013-03-18 09:06:00,27.0,23.0,29.78,SE,136,3.0,14.0,86,0.00,,,0.00,weatherlink.com 1.10,2013-03-18 14:06:00,
2013-03-18 09:21:00,27.2,24.0,29.78,East,99,8.0,12.0,86,0.00,,,0.00,weatherlink.com 1.10,2013-03-18 14:21:00,
2013-03-18 09:36:00,27.8,24.0,29.77,ESE,123,9.0,11.0,87,0.00,,,0.00,weatherlink.com 1.10,2013-03-18 14:36:00,
2013-03-18 10:21:00,28.6,26.0,29.74,ESE,118,5.0,10.0,90,0.00,,,0.00,weatherlink.com 1.10,2013-03-18 15:21:00,
2013-03-18 10:51:00,28.7,27.0,29.72,ESE,117,3.0,9.0,92,0.00,,,0.00,weatherlink.com 1.10,2013-03-18 15:51:00,
2013-03-18 11:21:00,29.5,28.0,29.71,SE,143,3.0,9.0,92,0.00,,,0.00,weatherlink.com 1.10,2013-03-18 16:21:00,
2013-03-18 11:36:00,30.1,28.0,29.70,ESE,114,5.0,7.0,92,0.00,,,0.00,weatherlink.com 1.10,2013-03-18 16:36:00,
2013-03-18 11:51:00,30.3,28.0,29.70,SE,139,5.0,9.0,92,0.00,,,0.00,weatherlink.com 1.10,2013-03-18 16:51:00,
2013-03-18 12:06:00,30.5,28.0,29.69,SE,126,3.0,7.0,91,0.00,,,0.00,weatherlink.com 1.10,2013-03-18 17:06:00,
2013-03-18 12:21:00,30.4,28.0,29.68,ESE,113,4.0,8.0,91,0.00,,,0.00,weatherlink.com 1.10,2013-03-18 17:21:00,
2013-03-18 12:36:00,30.3,28.0,29.68,SE,135,1.0,9.0,92,0.00,,,0.00,weatherlink.com 1.10,2013-03-18 17:36:00,
2013-03-18 12:51:00,30.2,28.0,29.68,SE,128,6.0,9.0,92,0.01,,,0.01,weatherlink.com 1.10,2013-03-18 17:51:00,
2013-03-18 13:06:00,30.2,29.0,29.66,SE,146,4.0,8.0,93,0.01,,,0.01,weatherlink.com 1.10,2013-03-18 18:06:00,
2013-03-18 13:21:00,30.1,28.0,29.66,SE,130,5.0,7.0,93,0.01,,,0.01,weatherlink.com 1.10,2013-03-18 18:21:00,
2013-03-18 13:36:00,30.2,29.0,29.64,SE,125,3.0,8.0,93,0.01,,,0.01,weatherlink.com 1.10,2013-03-18 18:36:00,
2013-03-18 14:06:00,30.2,29.0,29.62,SSE,149,4.0,6.0,93,0.00,,,0.01,weatherlink.com 1.10,2013-03-18 19:06:00,
2013-03-18 14:22:00,30.6,29.0,29.61,SE,138,4.0,5.0,93,0.01,,,0.02,weatherlink.com 1.10,2013-03-18 19:22:00,
2013-03-18 14:36:00,30.9,29.0,29.61,SE,134,2.0,5.0,93,0.01,,,0.02,weatherlink.com 1.10,2013-03-18 19:36:00,
2013-03-18 14:52:00,31.3,30.0,29.60,SSE,158,1.0,4.0,93,0.01,,,0.02,weatherlink.com 1.10,2013-03-18 19:52:00,
2013-03-18 15:07:00,31.9,30.0,29.59,SE,134,4.0,4.0,93,0.01,,,0.02,weatherlink.com 1.10,2013-03-18 20:07:00,
2013-03-18 15:22:00,32.0,30.0,29.59,South,169,1.0,5.0,92,0.00,,,0.02,weatherlink.com 1.10,2013-03-18 20:22:00,
2013-03-18 15:37:00,31.9,30.0,29.58,SSE,161,2.0,3.0,91,0.00,,,0.02,weatherlink.com 1.10,2013-03-18 20:37:00,
2013-03-18 16:07:00,32.7,30.0,29.58,South,188,4.0,5.0,91,0.01,,,0.03,weatherlink.com 1.10,2013-03-18 21:07:00,
2013-03-18 16:22:00,32.2,30.0,29.58,South,185,7.0,8.0,91,0.02,,,0.04,weatherlink.com 1.10,2013-03-18 21:22:00,
2013-03-18 16:37:00,32.3,30.0,29.58,SSW,196,4.0,7.0,92,0.02,,,0.04,weatherlink.com 1.10,2013-03-18 21:37:00,
2013-03-18 16:52:00,32.3,30.0,29.58,South,190,5.0,7.0,91,0.03,,,0.05,weatherlink.com 1.10,2013-03-18 21:52:00,
2013-03-18 17:07:00,32.2,30.0,29.58,WSW,248,4.0,7.0,91,0.02,,,0.05,weatherlink.com 1.10,2013-03-18 22:07:00,
2013-03-18 17:22:00,32.0,30.0,29.57,WSW,252,3.0,7.0,91,0.02,,,0.06,weatherlink.com 1.10,2013-03-18 22:22:00,
2013-03-18 17:37:00,32.1,30.0,29.57,NNW,334,2.0,7.0,92,0.02,,,0.06,weatherlink.com 1.10,2013-03-18 22:37:00,
2013-03-18 17:52:00,30.8,28.0,29.58,WNW,286,6.0,18.0,90,0.01,,,0.06,weatherlink.com 1.10,2013-03-18 22:52:00,
2013-03-18 18:07:00,27.7,25.0,29.59,NW,323,6.0,23.0,90,0.01,,,0.06,weatherlink.com 1.10,2013-03-18 23:07:00,
2013-03-18 18:22:00,26.4,24.0,29.60,WNW,286,6.0,23.0,90,0.00,,,0.06,weatherlink.com 1.10,2013-03-18 23:22:00,
2013-03-18 18:37:00,25.2,23.0,29.60,NNW,329,6.0,22.0,90,0.00,,,0.06,weatherlink.com 1.10,2013-03-18 23:37:00,
2013-03-18 18:52:00,24.6,22.0,29.61,West,261,5.0,21.0,90,0.00,,,0.06,weatherlink.com 1.10,2013-03-18 23:52:00,
2013-03-18 19:07:00,23.4,21.0,29.62,North,355,4.0,25.0,90,0.00,,,0.06,weatherlink.com 1.10,2013-03-19 00:07:00,
2013-03-18 19:37:00,22.9,20.0,29.63,NW,320,7.0,19.0,88,0.00,,,0.06,weatherlink.com 1.10,2013-03-19 00:37:00,
2013-03-18 19:52:00,22.1,19.0,29.64,WNW,298,3.0,20.0,88,0.00,,,0.06,weatherlink.com 1.10,2013-03-19 00:52:00,
2013-03-18 20:07:00,20.9,18.0,29.64,WNW,283,8.0,24.0,88,0.00,,,0.06,weatherlink.com 1.10,2013-03-19 01:07:00,
2013-03-18 20:22:00,20.2,17.0,29.65,North,351,5.0,21.0,88,0.00,,,0.06,weatherlink.com 1.10,2013-03-19 01:22:00,
2013-03-18 20:37:00,20.1,17.0,29.65,South,180,3.0,23.0,86,0.00,,,0.06,weatherlink.com 1.10,2013-03-19 01:37:00,
2013-03-18 20:52:00,19.6,16.0,29.66,NNE,25,4.0,18.0,86,0.00,,,0.06,weatherlink.com 1.10,2013-03-19 01:52:00,
2013-03-18 21:07:00,19.0,15.0,29.67,WNW,290,2.0,17.0,84,0.00,,,0.06,weatherlink.com 1.10,2013-03-19 02:07:00,
2013-03-18 21:22:00,18.6,15.0,29.67,NW,316,4.0,22.0,85,0.00,,,0.06,weatherlink.com 1.10,2013-03-19 02:22:00,
2013-03-18 21:37:00,18.4,15.0,29.67,NNE,28,8.0,23.0,86,0.00,,,0.06,weatherlink.com 1.10,2013-03-19 02:37:00,
2013-03-18 21:52:00,18.3,15.0,29.67,North,355,5.0,17.0,86,0.00,,,0.06,weatherlink.com 1.10,2013-03-19 02:52:00,
2013-03-18 22:07:00,18.2,15.0,29.67,West,271,13.0,18.0,86,0.00,,,0.06,weatherlink.com 1.10,2013-03-19 03:07:00,
2013-03-18 22:22:00,18.0,15.0,29.67,East,86,6.0,19.0,86,0.00,,,0.06,weatherlink.com 1.10,2013-03-19 03:22:00,
2013-03-18 22:37:00,17.9,14.0,29.68,NNW,345,7.0,20.0,86,0.00,,,0.06,weatherlink.com 1.10,2013-03-19 03:37:00,
2013-03-18 22:52:00,17.8,14.0,29.68,NW,311,7.0,17.0,86,0.00,,,0.06,weatherlink.com 1.10,2013-03-19 03:52:00,
2013-03-18 23:07:00,17.7,14.0,29.68,NNE,22,4.0,21.0,86,0.00,,,0.06,weatherlink.com 1.10,2013-03-19 04:07:00,
2013-03-18 23:22:00,17.6,14.0,29.68,WNW,284,13.0,17.0,85,0.00,,,0.06,weatherlink.com 1.10,2013-03-19 04:22:00,
2013-03-18 23:37:00,17.6,14.0,29.68,West,261,5.0,19.0,84,0.00,,,0.06,weatherlink.com 1.10,2013-03-19 04:37:00,
2013-03-18 23:52:00,17.4,14.0,29.68,SSW,202,14.0,21.0,85,0.00,,,0.06,weatherlink.com 1.10,2013-03-19 04:52:00,